Página principal
METAR-TAF:

METAR-TAF

Aeroportos :

Ada, Oklahoma, Estados Unidos

latitude: 34-48-16N, longitude: 096-40-17W, altura: 310 m

Observação actual do tempo

O boletim foi feito há 34 minutos, às 14:35 UTC
Vento 11 kt de sudoeste
Temperatura 10°C
Humidade 100%
Pressão 1006 hPa
Visibilidade: 16.1 km
Céu limpo

METAR: KADH 231435Z AUTO 22011KT 10SM CLR 10/10 A2972 RMK AO2

Hora: 09:09 (15:09 UTC)


TAF: em falta

Observações e previsões do tempo de mais de 4000 aeroportos (mensagens METAR e TAF).

As estações disponíveis são os pontos amarelos e vermelhos sobre o mapa.

Mova o rato sobre o mapa para ver o nome da estação.

Depois clique no ponto para visualizar as observações e previsões meteorológicas.

Para alterar o mapa : clique nos botões verdes com uma cruz preta para aumentar o zoom; no botão verde com uma pitada de zoom; ou nas setas verdes para mapas adjacentes.


METAR-TAF: